Skip Page Navigation
NASA JPL Caltech
NASA Logo - Jet Propulsion Laboratory + View the NASA Portal
+ Center for Near-Earth Object Studies
JPL Home Earth Solar System Stars & Galaxies Technology
JPL Solar System Dynamics
BODIES ORBITS EPHEMERIDES TOOLS PHYSICAL DATA DISCOVERY FAQ SITE MAP
IMPORTANT: The SSD Announcement email list is now available. Major changes are coming in the near future, including possible hostname and/or URL changes. To be notified of such changes, subscribe to this email list.

Please visit this page for more details.


JPL Small-Body Database Browser
Search: [ help ]  
26019 (2768 P-L)
Classification: Main-belt Asteroid          SPK-ID: 2026019
Ephemeris | Orbit Diagram | Orbital Elements | Mission Design | Physical Parameters | Discovery Circumstances ]

[ show orbit diagram ]
Orbital Elements at Epoch 2458600.5 (2019-Apr-27.0) TDB
Reference: JPL 21 (heliocentric ecliptic J2000)
 Element Value Uncertainty (1-sigma)   Units 
e .1236428232158876 4.3143e-08  
a 2.61208366910662 1.1517e-08 au
q 2.289118269782163 1.1122e-07 au
i 2.777530623292499 3.8834e-06 deg
node 126.3068004148626 0.00011083 deg
peri 112.4132954623539 0.0001124 deg
M 70.25474540054311 1.9883e-05 deg
tp 2458299.579194062131
(2018-Jun-30.07919406)
8.5076e-05 TDB
period 1541.981107752979
4.22
1.0198e-05
2.792e-08
d
yr
n .2334658953925854 1.544e-09 deg/d
Q 2.935049068431077 1.2941e-08 au
  Orbit Determination Parameters
   # obs. used (total)      1126  
   data-arc span      21582 days (59.09 yr)  
   first obs. used      1960-09-24  
   last obs. used      2019-10-27  
   planetary ephem.      DE431  
   SB-pert. ephem.      SB431-N16  
   condition code      0  
   norm. resid. RMS      .54159  
   source      ORB  
   producer      Otto Matic  
   solution date      2019-Nov-07 04:51:03  

Additional Information
 Earth MOID = 1.27856 au 
 Jupiter MOID = 2.06892 au 
 T_jup = 3.397 
[ show covariance matrix ]

Ephemeris | Orbit Diagram | Orbital Elements | Mission Design | Physical Parameters | Discovery Circumstances ]

Physical Parameter Table
Parameter Symbol Value Units Sigma Reference Notes
absolute magnitude H 14.9   n/a MPO351005  
diameter diameter 5.552 km 0.177 urn:nasa:pds:neowise_diameters_albedos::2.0[mainbelt] (http://adsabs.harvard.edu/abs/2011ApJ...741...68M)  
geometric albedo albedo 0.057   0.011 urn:nasa:pds:neowise_diameters_albedos::2.0[mainbelt] (http://adsabs.harvard.edu/abs/2011ApJ...741...68M)  

26019 (2768 P-L)          Discovered 1960-Sep-24 by van Houten, C. J., van Houten-Groeneveld, I., Gehrels, T. at Palomar
Reference: 20010606/Numbers.arcLast Updated: 2004-04-19

Alternate Designations
 2768 P-L = 1997 LT17 = 3188 T-3 
Ephemeris | Orbit Diagram | Orbital Elements | Mission Design | Physical Parameters | Discovery Circumstances ]
ABOUT SSD CREDITS/AWARDS PRIVACY/COPYRIGHT GLOSSARY LINKS
FirstGov
(server date/time)  
NASA Home Page
Site Manager:   Ryan S. Park
Webmaster  Alan B. Chamberlin